Volver al catálogo

STARLINK-4376

ActivoComunicacionesSSO
NORAD 53216·PAYLOAD·🇺🇸 United States

Lanzado Jul 22, 2022 desde Vandenberg Space Force Base

Loading…

Próximos Pases (próximas 24 horas)

TLE

ActualizadoSource: CelesTrak SupGP

Época: Sep 14, 2026, 14:25 UTC

1 53216C 22084AD  26257.60118056  .00060580  00000+0  18802-2 0  2578
2 53216  97.2844 312.5078 0001318  95.7567  80.0054 15.33413691    15

Sigue STARLINK-4376 en tiempo real con AllMySat

Download on the App Store